[[{"header":{"parameterUnit":"m.s-1","parameterCategory":1,"la1":30.2991,"la2":30.254,"lo1":-89.0895,"lo2":-89.0444,"dy":0.0017,"dx":0.0017,"nx":28,"ny":28,"refTime":"2025-09-06T09:00:00:Z","depth":0,"parameterNumber":2,"parameterNumberName":"U-component_of_WINDS"},"data":[0,0,0,0,0,0,0,0,0,0,0,0,0,0,0,0,0,0,0,0,0,0,0,0,0,0,0,0,0,0,0,0,0,0,0,0,0,0,0,0,0,0,0,0,0,0,0,0,0,0,0,0,0,0,0,0,0,0,-0.5642,-0.5642,0,-0.5602,-0.5601,-0.5601,-0.5584,-0.5584,-0.5584,-0.5584,-0.5541,-0.5539,-0.5538,0,0,0,0,0,0,0,0,0,0,0,0,0,-0.5702,-0.5701,-0.5642,-0.5641,-0.5641,-0.5602,-0.5601,-0.5601,-0.5584,-0.5584,-0.5584,-0.5584,-0.5541,-0.5539,-0.5538,0,0,0,0,0,0,0,0,0,0,0,0,0,-0.567,-0.57,-0.5642,-0.5628,-0.5626,-0.5602,-0.5601,-0.56,-0.5584,-0.5584,-0.5584,-0.5584,-0.5541,-0.554,-0.5538,-0.5524,0,0,-0.5532,-0.5531,0,0,0,0,0,0,0,0,-0.5672,-0.5668,-0.5631,-0.5629,-0.5627,-0.5598,-0.5606,-0.5575,-0.5584,-0.56,-0.5584,-0.5584,-0.5559,-0.5556,-0.5548,-0.5522,-0.552,-0.5532,-0.5531,-0.553,-0.5529,0,0,0,0,0,0,0,-0.5674,-0.5669,-0.5626,-0.563,-0.5628,-0.5623,-0.5618,-0.56,-0.5579,-0.5599,-0.5597,-0.5593,-0.5558,-0.555,-0.5547,-0.5519,-0.5532,-0.553,-0.5529,-0.5528,-0.5477,-0.5477,0,0,0,0,0,0,-0.5679,-0.5671,-0.5627,-0.5625,-0.565,-0.5622,-0.5617,-0.5607,-0.5579,-0.5575,-0.5593,-0.5592,-0.5553,-0.5549,-0.5545,-0.5526,-0.553,-0.5528,-0.5527,-0.5477,-0.5477,-0.5477,0,0,0,0,0,0,-0.568,-0.5675,-0.5629,-0.5648,-0.5641,-0.562,-0.561,-0.5606,-0.5598,-0.5575,-0.5571,-0.5588,-0.5553,-0.5548,-0.5529,-0.5524,-0.5527,-0.5526,-0.5478,-0.5477,-0.5477,-0.5488,0,0,0,0,0,0,-0.5682,-0.5676,-0.5671,-0.5648,-0.564,-0.5614,-0.561,-0.5605,-0.5595,-0.5594,-0.557,-0.5566,-0.5553,-0.5532,-0.5527,-0.5522,-0.5524,-0.5478,-0.5478,-0.5477,-0.5488,-0.5488,-0.5488,0,0,0,0,0,-0.5684,-0.5675,-0.5671,-0.5666,-0.5634,-0.5614,-0.561,-0.5595,-0.5595,-0.5589,-0.5574,-0.5567,-0.5526,-0.553,-0.5525,-0.5519,-0.5478,-0.5478,-0.5477,-0.5488,-0.5488,-0.5488,0,0,0,0,0,0,-0.5698,-0.5672,-0.5667,-0.565,-0.5634,-0.5611,-0.5604,-0.5596,-0.558,-0.5579,-0.5562,-0.5556,-0.5538,-0.5527,-0.5532,-0.5503,-0.5501,-0.55,-0.5511,-0.5511,-0.5511,-0.5514,-0.5523,0,0,0,0,0,-0.5699,-0.5686,-0.5664,-0.5651,-0.5643,-0.5625,-0.5616,-0.5606,-0.5589,-0.5582,-0.5566,-0.5548,-0.5531,-0.5521,-0.5504,-0.5486,-0.548,-0.5479,-0.5479,-0.5479,-0.5478,-0.5466,-0.5465,-0.5475,-0.5475,-0.5475,0,0,-0.5701,-0.5685,-0.5678,-0.5653,-0.564,-0.5625,-0.5619,-0.5605,-0.5593,-0.5579,-0.556,-0.5548,-0.5527,-0.5508,-0.5499,-0.5498,-0.5474,-0.5479,-0.5479,-0.5477,-0.5466,-0.5465,-0.5464,-0.5475,-0.5475,-0.5475,0,0,-0.5698,-0.5685,-0.5673,-0.5659,-0.5639,-0.5627,-0.5624,-0.5602,-0.5593,-0.5574,-0.5562,-0.5548,-0.552,-0.5505,-0.5494,-0.5484,-0.5476,-0.5479,-0.5479,-0.5468,-0.5468,-0.5467,-0.5462,-0.5461,-0.5478,-0.5478,-0.5478,0,-0.5703,-0.5681,-0.5667,-0.5653,-0.5642,-0.5629,-0.5615,-0.5603,-0.5578,-0.557,-0.5569,-0.5533,-0.5518,-0.5495,-0.5493,-0.5484,-0.5479,-0.5482,-0.5469,-0.5468,-0.5467,-0.5462,-0.5461,-0.5478,-0.5478,-0.5478,-0.5478,0,-0.5688,-0.5673,-0.5666,-0.5642,-0.563,-0.5617,-0.5599,-0.5589,-0.558,-0.5567,-0.5547,-0.5529,-0.5508,-0.5502,-0.5493,-0.5477,-0.5477,-0.5473,-0.5471,-0.5467,-0.5462,-0.546,-0.5479,-0.5479,-0.5479,-0.5479,0,0,-0.5692,-0.5661,-0.5659,-0.5647,-0.5624,-0.5612,-0.5597,-0.5577,-0.5567,-0.555,-0.5537,-0.5512,-0.5508,-0.5496,-0.5485,-0.5475,-0.5467,-0.5472,-0.5471,-0.5471,-0.5447,-0.545,-0.5448,-0.5462,-0.5461,-0.5461,-0.5449,0,-0.5685,-0.5659,-0.5645,-0.5624,-0.5609,-0.5596,-0.5583,-0.5567,-0.5554,-0.5539,-0.5525,-0.5508,-0.5504,-0.5496,-0.5486,-0.547,-0.5462,-0.5471,-0.5447,-0.5447,-0.5453,-0.5446,-0.5449,-0.5438,-0.5447,-0.5446,-0.5446,0,-0.5674,-0.5657,-0.5635,-0.5612,-0.5605,-0.5594,-0.5574,-0.556,-0.554,-0.5532,-0.5517,-0.5507,-0.5489,-0.5489,-0.5463,-0.547,-0.5459,-0.545,-0.5449,-0.5446,-0.5446,-0.5442,-0.5435,-0.5433,-0.5443,-0.5444,-0.5444,0,-0.5678,-0.565,-0.5633,-0.5624,-0.5597,-0.5589,-0.5578,-0.5558,-0.5547,-0.5529,-0.5521,-0.5501,-0.549,-0.5474,-0.5457,-0.5459,-0.5433,-0.5432,-0.5425,-0.5425,-0.542,-0.542,-0.541,-0.5414,-0.5414,-0.5414,-0.5414,0,-0.5671,-0.5658,-0.5635,-0.5624,-0.5608,-0.5592,-0.5576,-0.5563,-0.5546,-0.5532,-0.5519,-0.5506,-0.5485,-0.5469,-0.5456,-0.5436,-0.5431,-0.5423,-0.542,-0.5424,-0.5425,-0.5416,-0.5417,-0.5414,-0.5414,-0.5414,-0.5414,0,-0.5674,-0.5658,-0.5638,-0.5614,-0.5608,-0.5597,-0.5576,-0.5564,-0.5551,-0.5533,-0.5528,-0.5507,-0.5487,-0.5469,-0.5442,-0.5433,-0.5413,-0.5409,-0.542,-0.5418,-0.5411,-0.5412,-0.5395,-0.5391,-0.5399,-0.5399,-0.5398,0,-0.567,-0.566,-0.5635,-0.5625,-0.5613,-0.5597,-0.5585,-0.5568,-0.5556,-0.5532,-0.5523,-0.5502,-0.5485,-0.5453,-0.5435,-0.5414,-0.5409,-0.5404,-0.5406,-0.541,-0.5408,-0.5408,-0.5407,-0.5404,-0.5404,-0.5404,-0.5404,0,-0.5666,-0.5658,-0.5642,-0.5622,-0.5609,-0.5592,-0.5576,-0.5568,-0.5547,-0.5534,-0.5514,-0.55,-0.5473,-0.5452,-0.5429,-0.5416,-0.5406,-0.5404,-0.5401,-0.5405,-0.5412,-0.5407,-0.5419,-0.5405,-0.5405,-0.5405,-0.5405,-0.5405,-0.5664,-0.5654,-0.5635,-0.5616,-0.5602,-0.5587,-0.5574,-0.5559,-0.5542,-0.5519,-0.551,-0.5489,-0.5468,-0.5436,-0.5423,-0.5405,-0.5404,-0.54,-0.5398,-0.5398,-0.5398,-0.5415,-0.5401,-0.5401,-0.5401,-0.5401,-0.5401,0,-0.5658,-0.5645,-0.5629,-0.5606,-0.5591,-0.5584,-0.5565,-0.5553,-0.5535,-0.5517,-0.55,-0.5475,-0.5455,-0.5434,-0.5412,-0.5402,-0.5397,-0.5396,-0.5397,-0.5394,-0.5401,-0.5405,-0.5401,-0.5401,-0.5401,-0.5401,-0.5401,-0.5401,-0.5654,-0.5635,-0.5625,-0.5599,-0.5585,-0.5565,-0.5555,-0.554,-0.5525,-0.5499,-0.5482,-0.5469,-0.5449,-0.5425,-0.5405,-0.54,-0.5392,-0.5392,-0.5386,-0.5393,-0.5393,-0.5393,-0.5397,-0.5391,-0.5391,-0.5379,-0.5379,-0.5379]},{"header":{"parameterUnit":"m.s-1","parameterCategory":1,"la1":30.2991,"la2":30.254,"lo1":-89.0895,"lo2":-89.0444,"dy":0.0017,"dx":0.0017,"nx":28,"ny":28,"refTime":"2025-09-06T09:00:00:Z","depth":0,"parameterNumber":3,"parameterNumberName":"V-component_of_WINDS"},"data":[0,0,0,0,0,0,0,0,0,0,0,0,0,0,0,0,0,0,0,0,0,0,0,0,0,0,0,0,0,0,0,0,0,0,0,0,0,0,0,0,0,0,0,0,0,0,0,0,0,0,0,0,0,0,0,0,0,0,-4.1309,-4.131,0,-4.1341,-4.1341,-4.1341,-4.1342,-4.1341,-4.1341,-4.1341,-4.1369,-4.137,-4.1371,0,0,0,0,0,0,0,0,0,0,0,0,0,-4.1248,-4.1249,-4.1309,-4.131,-4.131,-4.1341,-4.1341,-4.1341,-4.1342,-4.1341,-4.1341,-4.134,-4.1368,-4.137,-4.1371,0,0,0,0,0,0,0,0,0,0,0,0,0,-4.1276,-4.1249,-4.1309,-4.1314,-4.1315,-4.1341,-4.1341,-4.1342,-4.1342,-4.1341,-4.1341,-4.134,-4.1368,-4.137,-4.1371,-4.1393,0,0,-4.1376,-4.1377,0,0,0,0,0,0,0,0,-4.1275,-4.1279,-4.1313,-4.1314,-4.1315,-4.1337,-4.133,-4.1359,-4.1342,-4.1331,-4.1341,-4.134,-4.1358,-4.1361,-4.1368,-4.1394,-4.1396,-4.1376,-4.1377,-4.1378,-4.1379,0,0,0,0,0,0,0,-4.1273,-4.1277,-4.1322,-4.1313,-4.1314,-4.1314,-4.1317,-4.1335,-4.1348,-4.1332,-4.1332,-4.1336,-4.1359,-4.1366,-4.1368,-4.1396,-4.1376,-4.1378,-4.1379,-4.138,-4.1445,-4.1446,0,0,0,0,0,0,-4.127,-4.1276,-4.1321,-4.1322,-4.1293,-4.1316,-4.1319,-4.133,-4.1347,-4.135,-4.1337,-4.1336,-4.1364,-4.1366,-4.1369,-4.1398,-4.1378,-4.138,-4.1381,-4.1445,-4.1445,-4.1446,0,0,0,0,0,0,-4.1269,-4.1274,-4.1319,-4.1299,-4.1305,-4.1317,-4.1329,-4.1331,-4.1339,-4.1351,-4.1353,-4.1342,-4.1363,-4.1367,-4.1388,-4.1399,-4.138,-4.1382,-4.1444,-4.1445,-4.1446,-4.1455,0,0,0,0,0,0,-4.1267,-4.1274,-4.1282,-4.1299,-4.1306,-4.1338,-4.133,-4.1332,-4.1342,-4.1342,-4.1357,-4.1358,-4.1363,-4.1386,-4.139,-4.1401,-4.1383,-4.1443,-4.1444,-4.1446,-4.1454,-4.1456,-4.1458,0,0,0,0,0,-4.1265,-4.1282,-4.1283,-4.1288,-4.1317,-4.1339,-4.1342,-4.1348,-4.1343,-4.1352,-4.136,-4.1358,-4.1397,-4.1388,-4.1392,-4.1404,-4.1442,-4.1444,-4.1445,-4.1453,-4.1456,-4.1458,0,0,0,0,0,0,-4.1263,-4.1284,-4.1285,-4.1308,-4.1322,-4.1339,-4.135,-4.1351,-4.1365,-4.1364,-4.137,-4.1373,-4.1395,-4.1401,-4.1391,-4.1428,-4.1419,-4.1422,-4.1423,-4.1426,-4.1428,-4.1426,-4.1385,0,0,0,0,0,-4.1266,-4.1283,-4.1299,-4.1318,-4.1325,-4.1337,-4.1346,-4.135,-4.1364,-4.1369,-4.1379,-4.1391,-4.1407,-4.1417,-4.1431,-4.1455,-4.1459,-4.1466,-4.1468,-4.147,-4.1472,-4.1488,-4.1491,-4.1452,-4.1452,-4.1452,0,0,-4.1271,-4.1284,-4.1294,-4.1318,-4.1329,-4.1347,-4.1341,-4.1358,-4.1371,-4.1371,-4.1393,-4.1401,-4.1415,-4.1438,-4.1449,-4.1445,-4.1484,-4.1472,-4.1473,-4.1475,-4.149,-4.1493,-4.1497,-4.1453,-4.1453,-4.1453,0,0,-4.1289,-4.13,-4.1319,-4.1331,-4.1349,-4.1357,-4.1361,-4.1379,-4.1385,-4.1407,-4.1408,-4.1423,-4.1449,-4.146,-4.1469,-4.1496,-4.1495,-4.15,-4.1512,-4.1527,-4.1531,-4.1533,-4.1544,-4.1548,-4.1502,-4.1502,-4.1502,0,-4.1292,-4.1319,-4.1327,-4.1346,-4.1358,-4.1361,-4.138,-4.1391,-4.1412,-4.142,-4.1415,-4.145,-4.146,-4.1487,-4.1494,-4.1501,-4.1507,-4.1498,-4.153,-4.1533,-4.1535,-4.1546,-4.155,-4.1503,-4.1503,-4.1503,-4.1503,0,-4.1323,-4.1342,-4.1354,-4.1378,-4.1391,-4.1409,-4.1421,-4.1433,-4.1437,-4.1445,-4.1469,-4.1481,-4.15,-4.1507,-4.1509,-4.1535,-4.1532,-4.1528,-4.152,-4.154,-4.155,-4.1554,-4.1504,-4.1504,-4.1504,-4.1503,0,0,-4.1338,-4.137,-4.1374,-4.1386,-4.1408,-4.1422,-4.1442,-4.1463,-4.1474,-4.1488,-4.1506,-4.1529,-4.1527,-4.1538,-4.1542,-4.1555,-4.1578,-4.155,-4.155,-4.1556,-4.161,-4.1613,-4.1618,-4.1578,-4.1579,-4.1579,-4.1609,0,-4.1359,-4.1396,-4.1407,-4.1437,-4.1456,-4.1461,-4.1479,-4.1494,-4.1503,-4.152,-4.1529,-4.1547,-4.1542,-4.1549,-4.1562,-4.1572,-4.1589,-4.157,-4.1594,-4.1595,-4.1591,-4.1623,-4.1625,-4.1653,-4.1613,-4.1613,-4.1614,0,-4.1388,-4.1408,-4.1442,-4.1465,-4.1473,-4.1488,-4.151,-4.1526,-4.1544,-4.155,-4.1564,-4.1567,-4.1588,-4.1579,-4.1609,-4.1596,-4.1606,-4.1613,-4.1614,-4.1617,-4.1606,-4.1627,-4.1662,-4.1666,-4.162,-4.1619,-4.1619,0,-4.1398,-4.1432,-4.1458,-4.1468,-4.1495,-4.1506,-4.1518,-4.1536,-4.1548,-4.1567,-4.1575,-4.1595,-4.1606,-4.1621,-4.163,-4.1622,-4.166,-4.165,-4.1666,-4.1666,-4.1673,-4.1673,-4.1711,-4.1679,-4.1679,-4.1678,-4.1678,0,-4.1421,-4.1442,-4.1464,-4.1479,-4.1503,-4.1515,-4.1538,-4.155,-4.1566,-4.1584,-4.1589,-4.1606,-4.1617,-4.1635,-4.1642,-4.1667,-4.1671,-4.1677,-4.1678,-4.1677,-4.1676,-4.1684,-4.1683,-4.168,-4.1679,-4.1679,-4.1679,0,-4.1436,-4.1451,-4.1479,-4.1504,-4.1511,-4.1528,-4.1549,-4.1564,-4.1575,-4.1598,-4.1604,-4.1621,-4.1643,-4.1654,-4.168,-4.1685,-4.1714,-4.1714,-4.1708,-4.1709,-4.1725,-4.1724,-4.1769,-4.1777,-4.1739,-4.1739,-4.1739,0,-4.1449,-4.1466,-4.1494,-4.1508,-4.1521,-4.1542,-4.1557,-4.157,-4.1584,-4.1609,-4.1622,-4.1645,-4.1664,-4.1699,-4.1712,-4.1734,-4.1735,-4.175,-4.1738,-4.1737,-4.1737,-4.1736,-4.1739,-4.1751,-4.1752,-4.1752,-4.1752,0,-4.1473,-4.1481,-4.1502,-4.1528,-4.1546,-4.1565,-4.1585,-4.1595,-4.1612,-4.1628,-4.1652,-4.1667,-4.1697,-4.172,-4.1743,-4.1754,-4.1756,-4.1756,-4.1761,-4.176,-4.1757,-4.1761,-4.1715,-4.1755,-4.1755,-4.1754,-4.1754,-4.1754,-4.1488,-4.1505,-4.1529,-4.1553,-4.157,-4.1589,-4.1607,-4.1621,-4.1643,-4.1669,-4.1675,-4.1701,-4.1722,-4.1753,-4.1765,-4.1786,-4.1782,-4.1789,-4.1791,-4.1792,-4.1794,-4.1754,-4.1789,-4.1789,-4.1789,-4.1789,-4.1789,0,-4.1513,-4.153,-4.1553,-4.1582,-4.1602,-4.1606,-4.1628,-4.1644,-4.1668,-4.1688,-4.1708,-4.1737,-4.1761,-4.1778,-4.1802,-4.1815,-4.1817,-4.1821,-4.182,-4.1823,-4.1795,-4.1789,-4.1819,-4.1819,-4.1819,-4.1819,-4.1819,-4.1819,-4.1529,-4.1558,-4.1569,-4.1608,-4.1624,-4.1652,-4.1665,-4.1683,-4.1699,-4.1733,-4.1753,-4.1765,-4.1785,-4.1811,-4.1833,-4.1837,-4.1846,-4.185,-4.1855,-4.1828,-4.1825,-4.1822,-4.1817,-4.1852,-4.1852,-4.1882,-4.1882,-4.1882]}]]